Visibility
15.0 15.0 15.0 15.0 15.0 15.0 15.0 15.0 15.0 15.0 15.0 15.0 15.0 15.0 15.0 15.0 15.0 15.0 15.0 15.0 15.0 15.0 15.0 15.0 15.0 15.0 15.0 15.0 15.0 15.0 15.0 15.0 15.0 15.0 15.0 15.0 15.0 15.0
15.0 15.0 15.0 15.0 15.0 15.0 15.0 15.0 15.0 15.0 15.0 15.0 15.0 15.0 15.0 15.0 15.0 15.0 15.0 15.0 15.0 15.0 15.0 15.0 15.0 15.0 15.0 15.0 15.0 15.0 15.0 15.0 15.0 15.0 15.0 15.0 15.0 15.0
15.0 15.0 15.0 15.0 15.0 15.0 15.0 15.0 15.0 15.0 15.0 15.0 15.0 15.0 15.0 15.0 15.0 15.0 15.0 15.0 15.0 15.0 15.0 15.0 15.0 15.0 15.0 15.0 15.0 15.0 15.0 15.0 15.0 15.0 15.0 15.0 15.0 15.0
15.0 15.0 15.0 15.0 15.0 15.0 15.0 15.0 15.0 15.0 9.9 15.0 15.0 15.0 15.0 15.0 15.0 15.0 15.0 15.0 15.0 15.0 15.0 15.0 15.0 15.0 15.0 15.0 15.0 15.0 15.0 15.0 15.0 15.0 15.0 15.0 15.0 15.0
15.0 15.0 15.0 15.0 15.0 15.0 15.0 15.0 15.0 15.0 15.0 15.0 15.0 15.0 15.0 15.0 15.0 15.0 15.0 15.0 15.0 15.0 15.0 15.0 15.0 15.0 15.0 15.0 15.0 15.0 15.0 15.0 15.0 15.0 15.0 15.0 15.0 15.0
15.0 15.0 15.0 15.0 15.0 15.0 15.0 15.0 15.0 15.0 15.0 15.0 15.0 15.0 15.0 15.0 15.0 15.0 15.0 15.0 15.0 15.0 15.0 15.0 15.0 15.0 15.0 15.0 15.0 15.0 15.0 15.0 15.0 15.0 15.0 15.0 15.0 15.0
15.0 15.0 15.0 15.0 15.0 15.0 15.0 15.0 15.0 15.0 15.0 15.0 15.0 15.0 14.5 13.2 15.0 15.0 15.0 15.0 15.0 15.0 15.0 15.0 15.0 15.0 15.0 15.0 15.0 15.0 15.0 15.0 15.0 15.0 15.0 15.0 15.0 15.0
15.0 15.0 15.0 15.0 15.0 15.0 15.0 15.0 15.0 15.0 15.0 15.0 15.0 15.0 15.0 15.0 15.0 15.0 15.0 15.0 15.0 15.0 15.0 15.0 15.0 15.0 15.0 15.0 15.0 15.0 15.0 15.0 15.0 15.0 15.0 15.0 15.0 15.0
15.0 15.0 15.0 15.0 15.0 15.0 15.0 15.0 15.0 15.0 15.0 15.0 15.0 15.0 15.0 15.0 15.0 15.0 15.0 15.0 15.0 15.0 15.0 15.0 15.0 15.0 15.0 15.0 15.0 15.0 7.9 15.0 15.0 15.0 15.0 15.0 15.0 15.0
15.0 15.0 15.0 15.0 15.0 15.0 15.0 15.0 15.0 15.0 15.0 15.0 15.0 15.0 15.0 15.0 15.0 12.3 15.0 15.0 15.0 15.0 15.0 15.0 15.0 15.0 15.0 15.0 15.0 15.0 15.0 15.0 15.0 10.7 15.0 15.0 15.0 15.0
15.0 15.0 15.0 15.0 15.0 15.0 15.0 15.0 15.0 15.0 15.0 15.0 15.0 15.0 15.0 15.0 15.0 15.0 3.0 3.1 6.5 15.0 15.0 14.5 15.0 15.0 15.0 15.0 15.0 15.0 15.0 15.0 14.6 14.9 13.2 15.0 15.0 15.0
15.0 15.0 15.0 15.0 15.0 15.0 15.0 15.0 15.0 15.0 15.0 15.0 15.0 15.0 15.0 15.0 15.0 15.0 14.9 0.3 9.3 0.9 15.0 14.5 0.0 0.0 0.0 15.0 15.0 15.0 15.0 15.0 15.0 13.0 10.8 15.0 15.0 6.9
15.0 15.0 15.0 15.0 15.0 15.0 15.0 15.0 15.0 15.0 15.0 15.0 15.0 15.0 15.0 15.0 15.0 15.0 15.0 15.0 7.2 12.5 7.8 0.1 0.0 0.0 0.0 0.1 15.0 15.0 15.0 15.0 15.0 15.0 15.0 6.0 15.0 15.0
15.0 15.0 15.0 15.0 15.0 15.0 15.0 15.0 15.0 15.0 15.0 15.0 15.0 15.0 15.0 15.0 15.0 15.0 15.0 14.8 15.0 15.0 15.0 14.0 0.0 0.0 0.0 0.1 0.1 15.0 15.0 15.0 3.0 0.1 0.1 9.0 7.3 15.0
15.0 15.0 15.0 15.0 15.0 15.0 15.0 15.0 15.0 15.0 15.0 15.0 15.0 15.0 15.0 15.0 15.0 2.6 13.2 15.0 9.3 15.0 12.9 5.2 0.1 0.0 0.0 0.1 0.1 0.7 0.5 6.7 12.3 0.2 0.6 0.9 0.7 12.5
15.0 15.0 15.0 15.0 15.0 15.0 15.0 15.0 15.0 15.0 15.0 15.0 15.0 15.0 15.0 15.0 4.8 9.2 0.1 0.1 0.1 0.1 6.0 0.3 0.1 0.1 0.1 0.1 0.1 0.1 0.6 0.1 0.2 0.3 0.5 13.4 12.2 7.3
15.0 15.0 15.0 15.0 15.0 15.0 15.0 15.0 15.0 15.0 15.0 15.0 15.0 15.0 15.0 15.0 0.1 0.2 0.1 0.1 0.1 0.1 0.0 0.1 1.6 0.4 0.1 0.1 0.0 0.1 0.1 0.2 7.6 0.3 9.6 1.7 7.2 8.8
13.6 15.0 15.0 15.0 15.0 15.0 15.0 15.0 15.0 15.0 15.0 15.0 15.0 15.0 15.0 15.0 0.0 0.0 0.1 0.0 0.0 0.1 0.1 0.1 0.1 0.1 0.2 3.3 6.4 0.1 5.9 11.6 6.5 0.0 0.1 3.6 0.6 3.9
9.7 15.0 8.9 15.0 15.0 15.0 15.0 15.0 15.0 15.0 15.0 15.0 15.0 11.0 15.0 8.6 0.0 0.0 0.0 0.0 0.0 0.0 0.0 0.3 0.1 0.2 0.1 0.3 6.4 14.5 14.6 15.0 6.4 0.2 0.1 0.1 0.1 0.0
15.0 14.4 8.0 15.0 12.9 15.0 15.0 15.0 15.0 15.0 15.0 15.0 2.9 15.0 12.8 0.0 0.0 0.0 0.0 0.0 0.0 0.0 0.1 0.1 0.1 8.1 15.0 11.2 15.0 14.9 15.0 5.7 1.3 0.1 0.1 0.1 0.0 0.0
0.2 0.5 8.3 8.2 15.0 15.0 15.0 15.0 15.0 13.7 7.7 10.7 8.3 14.7 0.0 0.0 0.0 0.0 0.0 0.0 0.0 0.0 0.2 0.3 3.8 15.0 15.0 8.5 2.2 4.0 2.8 0.3 0.6 0.3 0.1 0.1 0.1 0.1
15.0 15.0 15.0 15.0 15.0 9.4 15.0 15.0 14.9 13.4 0.1 0.1 3.1 15.0 0.1 0.0 0.0 0.0 0.0 0.0 0.0 0.5 0.2 0.8 0.3 2.0 1.4 3.3 5.3 10.0 4.8 0.5 0.0 0.0 0.0 0.1 0.2 0.1
15.0 15.0 15.0 15.0 15.0 15.0 10.4 10.1 1.5 4.3 5.0 14.9 14.8 0.0 0.0 0.0 0.0 0.0 0.0 0.0 0.1 0.1 0.1 0.1 0.8 0.8 1.6 2.5 5.3 2.7 3.0 0.9 0.7 0.1 0.2 15.0 15.0 15.0